Temperature
5 5 5 6 6 6 6 6 6 6 6 6 7 7 7 7 7 7 7 7 7 7 7 7 7 7 7 6 6 6 5 5 4 4 4 4 4 4 4 4 4 4 4
5 5 5 5 5 5 5 5 6 6 6 6 6 6 6 7 7 7 7 7 7 7 7 7 6 6 6 6 5 5 5 4 4 4 4 4 4 3 3 3 3 3 3
4 4 4 4 4 5 5 5 5 5 5 5 6 6 6 6 6 6 7 7 6 6 6 6 6 6 6 5 5 5 4 4 4 4 3 3 3 3 3 3 3 3 3
3 4 4 4 4 4 4 4 5 5 5 5 5 5 6 6 6 6 6 6 6 6 6 6 6 5 5 5 5 4 4 4 4 3 3 3 3 3 2 2 2 2 2
3 3 3 3 3 4 4 4 4 4 4 5 5 5 5 5 5 5 5 5 5 5 5 5 5 5 5 4 4 4 4 3 3 3 3 3 2 2 2 2 1 2 2
3 3 3 3 3 3 3 3 4 4 4 4 4 4 4 5 5 5 5 5 5 5 5 5 5 4 4 4 4 3 3 3 3 3 2 2 2 2 1 1 1 1 1
2 2 2 2 3 2 3 3 3 3 3 4 4 4 4 4 4 4 4 4 4 4 4 4 4 4 4 3 3 3 3 3 3 2 2 2 2 1 1 1 1 1 1
2 2 2 2 2 2 2 2 2 3 3 3 3 3 3 4 4 4 4 4 4 4 4 4 4 3 3 3 3 3 3 3 2 2 2 2 2 1 1 1 1 0 0
1 1 1 1 2 2 2 2 2 2 2 2 3 3 3 3 3 3 3 3 4 3 3 3 3 3 3 2 2 3 2 2 2 2 2 1 1 1 1 0 0 -0 0
1 1 1 1 1 1 1 1 1 1 2 2 2 2 3 3 3 3 3 3 3 3 3 3 3 2 2 2 2 2 2 2 2 1 1 1 1 1 1 1 0 -0 -0
0 0 1 1 1 1 1 1 1 1 1 1 2 2 2 2 2 2 2 2 2 2 2 2 2 2 2 2 2 2 1 1 1 1 1 1 1 1 1 0 0 -0 -0
-0 0 0 0 0 0 0 0 1 1 1 1 1 1 1 2 2 2 2 2 2 2 2 2 2 1 1 1 1 1 1 1 1 0 0 0 0 0 0 0 0 -0 -0
-1 -0 -0 -0 -0 -0 -0 -0 -0 -0 -0 0 0 1 1 1 1 1 1 1 1 1 1 1 1 1 1 1 1 1 1 0 0 -0 -0 -0 -0 -0 -0 0 0 -0 -0
-1 -1 -1 -1 -1 -1 -1 -1 -1 -1 -0 -0 -0 0 0 1 1 1 1 1 1 1 1 1 1 1 1 1 1 0 0 -0 -0 -0 -1 -0 -0 -0 -0 -0 -0 -0 -1
-2 -2 -1 -1 -1 -1 -1 -1 -1 -1 -1 -1 -1 -1 -0 0 0 0 0 0 0 0 0 0 0 0 0 0 0 -0 -0 -0 -1 -1 -1 -1 -1 -1 -0 -1 -1 -1 -1
-2 -2 -2 -2 -2 -2 -2 -1 -1 -1 -1 -1 -1 -1 -1 -1 -1 -0 -0 -0 -0 -0 -0 -0 -0 -0 -0 -0 -1 -1 -1 -1 -1 -1 -1 -1 -1 -1 -1 -1 -1 -1 -1
-3 -3 -3 -3 -2 -2 -2 -2 -2 -2 -2 -2 -1 -1 -1 -1 -1 -1 -1 -1 -1 -1 -1 -1 -1 -1 -1 -1 -1 -1 -1 -1 -1 -1 -1 -1 -1 -1 -1 -1 -1 -1 -1
-3 -3 -3 -3 -3 -3 -3 -2 -2 -2 -2 -2 -2 -2 -2 -1 -1 -1 -1 -1 -1 -1 -1 -1 -1 -1 -1 -1 -1 -1 -1 -1 -1 -1 -1 -1 -1 -1 -1 -1 -1 -1 -1
-3 -3 -3 -3 -3 -3 -3 -3 -3 -3 -3 -2 -2 -2 -2 -2 -2 -2 -2 -2 -2 -2 -2 -2 -2 -2 -2 -1 -1 -1 -1 -1 -2 -2 -2 -2 -2 -2 -2 -2 -2 -1 -2
-4 -4 -4 -4 -4 -4 -4 -3 -3 -3 -3 -3 -3 -3 -2 -2 -2 -2 -2 -2 -2 -2 -2 -2 -2 -2 -2 -2 -2 -2 -2 -2 -2 -2 -2 -2 -2 -2 -2 -2 -2 -2 -2
-4 -4 -4 -4 -4 -4 -4 -4 -4 -4 -3 -3 -3 -3 -3 -3 -2 -2 -3 -2 -2 -2 -2 -2 -2 -2 -2 -2 -2 -2 -2 -2 -2 -2 -2 -2 -2 -2 -2 -2 -2 -2 -2
-5 -5 -5 -5 -5 -5 -4 -4 -4 -4 -4 -4 -3 -3 -3 -3 -3 -3 -3 -3 -3 -2 -2 -2 -2 -2 -2 -3 -2 -2 -2 -2 -2 -2 -2 -2 -2 -2 -2 -2 -2 -2 -2
-5 -5 -5 -5 -5 -5 -5 -5 -5 -5 -4 -4 -4 -4 -4 -3 -3 -3 -3 -3 -3 -3 -3 -3 -3 -3 -3 -3 -3 -3 -2 -2 -2 -2 -2 -2 -2 -2 -2 -2 -2 -2 -2
-6 -6 -6 -6 -6 -5 -5 -5 -5 -5 -5 -5 -4 -4 -4 -4 -4 -4 -3 -3 -3 -3 -3 -3 -3 -3 -3 -3 -3 -3 -3 -3 -3 -3 -3 -2 -2 -2 -2 -2 -3 -3 -3
-6 -6 -6 -6 -6 -6 -6 -6 -6 -6 -5 -5 -5 -5 -5 -4 -4 -4 -4 -4 -4 -3 -3 -3 -3 -3 -3 -3 -3 -3 -3 -3 -3 -3 -3 -3 -3 -3 -3 -3 -3 -3 -3
-6 -7 -7 -6 -6 -6 -6 -6 -6 -6 -6 -6 -5 -5 -5 -5 -5 -4 -4 -4 -4 -4 -4 -3 -3 -3 -3 -3 -3 -3 -3 -3 -3 -3 -3 -3 -3 -3 -3 -3 -3 -3 -3
Wind_Speed
1 1 1 1 1 1 2 2 2 2 3 3 3 4 3 4 4 4 4 4 4 3 3 4 3 3 3 2 2 1 1 2 3 3 2 2 2 3 4 5 6 6 7
1 1 1 1 1 1 1 1 2 2 3 3 3 3 3 3 4 4 4 4 4 4 4 4 4 3 3 2 2 2 2 2 2 3 3 2 3 3 3 4 5 6 6
1 1 1 1 1 1 1 1 1 2 2 3 3 3 3 3 4 4 4 4 4 4 4 4 4 4 4 3 3 3 2 1 2 2 3 2 3 3 3 4 4 4 6
1 1 0 0 0 0 0 0 1 1 2 2 2 3 3 3 3 3 3 3 3 3 3 4 4 5 4 4 3 3 2 2 2 2 2 2 2 2 2 3 4 4 4
1 0 0 1 1 1 1 1 0 0 1 2 2 2 2 2 3 3 2 3 3 3 2 3 3 3 4 3 3 3 3 2 2 2 2 3 3 3 3 3 5 5 4
1 1 1 1 2 1 1 1 1 0 0 1 2 2 2 2 3 3 2 2 3 3 3 2 2 2 3 2 2 2 2 3 3 2 3 3 4 3 3 4 4 5 5
1 1 2 2 2 2 2 1 1 1 1 1 1 2 2 2 3 3 3 2 2 3 3 3 2 2 2 2 1 1 1 2 3 3 4 4 4 4 3 4 4 5 5
1 1 1 1 1 1 2 1 1 1 1 0 0 1 2 1 3 3 3 2 2 2 3 3 3 2 2 2 2 0 0 1 2 1 2 3 3 3 3 4 4 5 4
1 1 1 1 1 1 1 1 1 0 0 0 1 1 1 1 2 3 2 2 2 2 2 2 3 3 3 2 2 1 0 1 3 3 3 3 4 5 5 2 3 3 5
2 2 1 0 0 0 1 1 1 0 0 0 0 1 1 1 2 3 2 2 2 1 1 2 3 3 2 2 2 2 1 1 1 2 2 3 3 4 5 2 2 3 4
2 2 2 1 1 0 1 1 1 1 0 0 0 0 0 1 2 2 3 2 2 2 1 1 2 2 2 2 2 2 2 1 1 0 1 1 2 2 2 3 2 2 3
3 2 2 2 1 1 1 1 1 1 0 0 0 1 0 0 1 2 3 2 1 2 2 2 1 2 2 2 1 1 1 1 1 0 1 1 2 2 2 3 3 3 3
3 3 3 3 2 1 1 1 1 1 0 1 1 1 0 0 0 0 1 1 1 1 1 2 1 2 1 1 1 1 1 1 1 0 1 2 2 2 2 2 3 3 3
2 3 3 3 2 2 2 1 1 1 1 1 1 1 1 1 0 0 0 1 1 0 1 1 2 2 1 1 1 1 0 1 1 1 1 1 2 2 2 2 3 3 3
2 3 3 3 2 2 2 2 2 1 1 2 1 1 1 1 2 2 1 0 1 1 1 1 1 1 1 1 1 0 0 0 0 0 0 1 2 2 3 3 2 2 2
2 3 2 2 2 2 2 3 4 3 4 3 3 2 2 2 2 1 1 0 1 2 2 2 1 1 2 1 1 0 0 1 1 1 1 1 2 2 3 3 3 2 2
1 2 2 2 2 2 2 2 2 4 4 4 4 4 3 1 1 1 1 1 2 3 1 1 2 2 2 1 1 1 1 1 1 1 1 2 2 2 2 2 2 2 2
2 2 2 1 2 2 2 2 1 2 3 3 4 4 4 2 1 1 1 1 1 1 1 2 2 2 2 2 1 1 1 1 1 1 1 2 2 2 2 2 2 2 2
2 1 1 2 2 2 2 2 2 2 2 2 3 4 4 3 2 2 1 1 1 1 1 1 1 1 1 1 1 1 1 1 1 1 2 2 2 1 2 2 2 2 2
2 3 3 2 2 2 2 2 2 2 2 2 2 2 2 2 1 1 1 1 0 0 1 1 1 1 1 1 1 1 1 1 1 2 2 2 1 1 2 2 2 1 2
1 2 4 3 2 2 2 2 2 2 2 2 2 3 3 1 1 1 1 1 1 1 1 1 1 1 1 1 1 1 1 1 2 2 2 1 1 1 1 1 1 1 1
1 1 2 2 2 2 2 2 2 2 2 2 3 3 4 2 1 1 1 1 1 1 1 1 1 1 1 1 2 2 2 1 2 2 1 1 1 1 1 1 1 1 1
1 1 2 2 2 2 3 2 2 2 2 2 2 2 2 2 1 1 1 1 1 2 2 1 0 0 1 1 1 2 2 2 2 2 2 1 1 1 1 1 1 1 1
1 1 1 2 2 2 2 2 2 3 3 2 2 2 2 2 2 2 2 1 2 2 2 1 1 0 1 1 1 1 1 2 2 2 2 2 1 1 1 1 1 1 0
1 1 1 1 1 2 2 2 2 2 3 2 2 2 2 2 2 2 2 2 2 2 3 2 2 1 1 1 1 1 1 2 1 1 2 1 1 1 1 1 1 0 0
1 1 1 1 1 2 2 2 2 2 2 2 2 2 2 2 2 2 2 2 2 2 3 2 2 1 1 1 1 1 1 1 1 1 2 2 1 1 1 1 0 1 1
Wind_Direction
155 143 112 112 143 146 165 184 175 169 174 179 171 169 171 172 170 170 175 169 170 175 173 179 190 172 167 168 168 177 193 195 241 278 295 301 311 311 312 315 319 317 315
130 106 91 92 91 118 176 185 163 176 181 173 168 171 172 175 174 176 180 174 177 184 186 183 188 178 171 172 175 188 202 216 225 261 292 303 298 294 299 307 316 318 318
51 85 93 94 102 134 185 186 166 171 176 168 166 181 179 178 176 176 174 178 185 190 184 186 190 177 183 184 181 193 205 225 218 239 279 293 296 297 310 308 311 315 321
63 61 70 88 95 128 109 138 164 169 165 168 174 180 180 179 173 173 173 181 186 185 183 188 188 185 188 185 192 196 199 206 209 231 266 284 292 298 311 314 320 319 320
77 66 6 26 56 70 67 52 36 185 162 160 168 181 179 175 173 167 174 178 176 172 183 187 180 179 186 194 205 199 191 198 207 232 255 284 287 306 305 309 312 316 316
32 19 32 53 51 51 57 70 60 45 92 130 154 177 191 188 169 163 166 180 174 171 179 179 169 165 179 208 242 234 210 205 214 225 255 260 278 292 303 305 313 318 312
35 27 44 44 39 31 29 55 65 73 76 82 153 170 183 179 172 171 171 178 178 184 184 178 184 178 170 166 222 319 331 294 250 234 236 253 266 277 289 299 305 304 296
43 52 50 38 36 34 36 29 35 57 101 90 188 182 166 176 177 175 173 171 174 186 188 187 181 183 183 177 186 197 350 348 298 269 235 254 267 279 272 274 286 298 297
42 33 13 28 40 40 39 18 12 113 133 265 229 184 167 181 180 172 166 171 174 191 195 183 180 184 195 188 161 155 51 353 355 340 315 310 312 317 317 314 311 312 311
5 348 343 19 77 48 42 16 350 337 327 234 260 205 192 192 187 181 177 174 176 189 190 179 181 185 190 188 174 170 195 268 312 345 351 344 344 339 333 317 284 294 303
351 351 1 14 35 64 57 31 19 357 338 330 336 353 210 191 186 187 183 177 178 181 198 199 189 186 194 212 214 196 216 231 218 251 331 338 342 347 342 338 321 281 282
360 6 6 5 6 20 61 37 25 7 323 326 358 4 9 144 195 191 175 172 173 190 206 204 195 191 193 209 218 203 153 92 124 103 343 328 328 331 329 334 335 325 286
11 11 7 6 16 23 37 33 17 8 348 307 287 267 322 349 324 116 154 165 180 204 190 188 186 177 177 179 175 143 112 124 143 255 287 304 310 306 311 323 333 336 330
12 7 7 11 14 15 2 359 10 345 317 295 291 283 319 326 334 30 151 133 106 61 117 156 158 150 122 112 119 112 142 182 205 231 275 303 322 322 318 322 322 328 332
15 5 4 7 8 10 7 4 349 338 311 290 281 269 240 263 278 293 299 189 176 179 128 112 110 137 132 115 86 94 48 24 340 329 304 314 318 321 322 329 324 326 324
12 4 1 2 2 4 9 8 6 354 353 345 331 306 297 290 295 291 316 327 150 140 124 153 172 182 178 182 189 227 282 275 278 283 284 288 296 310 324 330 331 329 328
2 347 347 349 349 350 350 356 353 355 3 358 355 349 337 324 331 337 349 113 140 130 131 179 204 206 204 205 206 223 258 275 278 271 281 287 294 309 316 320 325 332 333
353 345 345 341 341 342 338 335 334 339 345 347 349 348 345 349 12 18 44 83 126 118 160 189 217 220 209 204 208 232 251 273 283 282 285 288 294 303 310 313 314 319 323
351 346 347 342 336 333 338 341 338 337 329 327 334 343 351 1 30 34 50 67 164 189 208 208 215 223 222 209 212 232 239 256 279 283 280 290 299 307 307 306 309 313 325
349 342 344 341 339 344 350 347 340 336 330 330 333 332 344 11 29 13 11 8 274 231 232 230 223 215 222 214 204 216 232 260 272 281 285 289 294 298 297 298 309 321 334
338 340 345 348 347 342 338 333 330 331 328 330 326 326 340 1 11 350 349 350 322 279 262 253 231 210 203 209 213 217 221 239 257 271 280 288 290 292 301 305 310 324 337
338 341 344 340 340 340 337 336 334 331 330 328 325 329 341 9 21 2 349 340 329 306 296 255 231 230 222 218 224 228 228 236 251 266 278 284 287 291 300 298 318 337 349
352 345 343 341 339 336 343 348 344 334 329 328 332 341 348 0 6 2 347 341 344 345 343 332 271 281 326 308 243 226 223 233 246 243 250 263 274 284 285 283 300 325 343
342 330 330 335 339 340 338 339 338 336 339 340 340 343 349 354 356 355 343 336 346 345 343 343 322 278 321 347 299 235 230 240 228 212 223 227 234 257 268 272 277 299 327
318 313 314 316 318 320 324 331 335 337 338 340 341 345 351 352 353 348 340 344 350 347 343 349 359 359 301 300 306 278 266 264 245 194 181 190 198 222 235 239 221 188 16
323 315 311 309 310 311 312 317 323 330 331 333 341 344 344 342 340 338 342 347 344 342 345 352 354 347 328 306 288 278 269 249 214 187 156 162 181 198 209 211 176 152 107
Height
1453 1454 1455 1456 1457 1458 1460 1462 1463 1465 1467 1467 1469 1470 1472 1473 1476 1478 1479 1481 1483 1484 1485 1487 1488 1488 1489 1490 1491 1492 1492 1493 1491 1491 1492 1491 1490 1489 1488 1487 1485 1482 1480
1452 1452 1453 1454 1455 1456 1458 1459 1461 1463 1464 1465 1466 1467 1469 1470 1472 1474 1476 1478 1480 1481 1482 1483 1484 1485 1486 1487 1487 1488 1489 1489 1489 1487 1487 1487 1487 1486 1484 1482 1481 1479 1476
1450 1451 1451 1452 1453 1454 1456 1457 1459 1460 1461 1462 1463 1465 1466 1467 1469 1471 1473 1475 1476 1478 1479 1480 1481 1481 1482 1483 1484 1484 1485 1486 1486 1485 1483 1483 1482 1482 1480 1478 1477 1475 1472
1449 1449 1450 1450 1451 1453 1454 1455 1456 1457 1458 1459 1460 1462 1463 1465 1466 1468 1470 1471 1473 1474 1475 1477 1477 1478 1479 1480 1480 1481 1482 1482 1482 1481 1480 1479 1478 1478 1477 1474 1472 1471 1469
1447 1448 1449 1449 1450 1451 1452 1453 1454 1455 1456 1457 1458 1459 1460 1462 1463 1465 1467 1468 1470 1471 1472 1473 1474 1475 1476 1477 1477 1478 1478 1478 1478 1477 1477 1476 1475 1474 1473 1471 1469 1466 1465
1446 1447 1447 1448 1448 1449 1450 1450 1452 1452 1453 1454 1455 1456 1458 1459 1461 1462 1464 1465 1467 1468 1469 1470 1471 1472 1473 1474 1475 1475 1475 1475 1474 1474 1473 1472 1471 1471 1470 1468 1466 1463 1460
1445 1445 1446 1446 1447 1448 1448 1449 1449 1450 1450 1451 1453 1454 1455 1457 1458 1460 1461 1462 1464 1465 1466 1467 1468 1469 1470 1470 1471 1472 1472 1472 1472 1471 1470 1469 1468 1467 1466 1464 1463 1461 1459
1444 1444 1445 1445 1446 1446 1446 1447 1447 1447 1448 1449 1450 1452 1453 1454 1456 1457 1458 1459 1461 1462 1463 1464 1465 1466 1466 1467 1468 1468 1468 1468 1468 1468 1467 1466 1466 1465 1464 1462 1460 1458 1456
1443 1443 1444 1444 1444 1444 1445 1445 1446 1446 1447 1448 1448 1449 1450 1452 1453 1454 1455 1456 1457 1459 1460 1461 1462 1462 1463 1464 1465 1464 1464 1464 1465 1465 1464 1464 1463 1462 1461 1459 1457 1455 1452
1442 1443 1443 1443 1443 1443 1443 1444 1444 1445 1445 1446 1446 1447 1448 1449 1450 1451 1453 1453 1454 1456 1457 1458 1459 1460 1460 1461 1461 1461 1461 1461 1461 1461 1461 1460 1460 1459 1458 1457 1455 1453 1450
1442 1442 1442 1442 1442 1442 1442 1442 1442 1443 1443 1444 1444 1445 1446 1447 1448 1449 1450 1451 1452 1453 1454 1455 1456 1457 1458 1458 1459 1459 1459 1459 1458 1458 1457 1457 1456 1455 1454 1454 1452 1451 1449
1441 1441 1441 1441 1441 1441 1440 1440 1441 1441 1441 1442 1442 1443 1444 1445 1446 1446 1448 1449 1449 1450 1451 1452 1453 1454 1455 1456 1456 1456 1457 1456 1456 1455 1454 1453 1453 1452 1451 1450 1449 1448 1446
1440 1439 1439 1439 1439 1439 1439 1439 1439 1439 1440 1440 1441 1441 1442 1443 1444 1444 1445 1446 1447 1448 1449 1449 1450 1451 1452 1453 1453 1453 1453 1453 1453 1453 1452 1451 1451 1450 1449 1448 1446 1445 1443
1439 1438 1438 1438 1438 1438 1438 1438 1438 1438 1438 1439 1439 1439 1440 1441 1441 1442 1443 1443 1444 1445 1446 1447 1448 1448 1449 1450 1450 1450 1451 1451 1451 1451 1450 1449 1449 1448 1447 1445 1444 1442 1440
1438 1437 1437 1437 1437 1437 1437 1437 1437 1437 1438 1438 1437 1438 1438 1438 1439 1440 1441 1441 1442 1443 1444 1444 1445 1445 1446 1446 1447 1447 1448 1448 1448 1448 1448 1447 1446 1446 1445 1443 1442 1440 1439
1437 1436 1437 1437 1436 1436 1436 1436 1436 1437 1436 1436 1436 1436 1436 1437 1437 1438 1439 1439 1440 1441 1441 1441 1442 1442 1443 1443 1444 1445 1445 1446 1446 1446 1446 1445 1444 1444 1443 1441 1440 1438 1437
1436 1436 1436 1436 1436 1436 1435 1435 1434 1435 1435 1435 1434 1434 1435 1435 1436 1436 1437 1437 1438 1438 1439 1439 1440 1440 1441 1442 1442 1443 1443 1444 1444 1444 1443 1443 1443 1442 1441 1439 1438 1437 1435
1436 1436 1435 1435 1435 1435 1435 1434 1434 1433 1432 1432 1433 1433 1433 1433 1434 1434 1435 1435 1435 1436 1436 1437 1437 1438 1439 1440 1440 1441 1442 1442 1442 1442 1441 1441 1440 1440 1439 1438 1436 1435 1434
1435 1435 1435 1434 1434 1434 1433 1433 1433 1432 1432 1431 1431 1431 1431 1431 1432 1432 1432 1432 1433 1433 1434 1435 1436 1436 1437 1437 1438 1439 1439 1440 1440 1440 1439 1439 1438 1438 1437 1436 1435 1434 1433
1434 1434 1434 1433 1433 1433 1432 1432 1431 1431 1431 1430 1430 1430 1430 1430 1430 1430 1430 1430 1431 1431 1432 1433 1434 1434 1435 1435 1436 1437 1437 1437 1438 1438 1437 1437 1437 1436 1436 1435 1434 1433 1432
1433 1433 1433 1432 1432 1431 1431 1430 1430 1430 1430 1429 1429 1429 1429 1429 1429 1429 1429 1429 1429 1430 1431 1431 1432 1432 1433 1434 1434 1435 1435 1435 1436 1436 1435 1435 1435 1435 1434 1434 1433 1432 1431
1432 1432 1432 1431 1431 1430 1430 1429 1429 1428 1428 1428 1428 1428 1428 1428 1428 1428 1428 1428 1429 1429 1430 1430 1430 1431 1431 1432 1433 1433 1433 1433 1433 1433 1433 1433 1433 1433 1433 1432 1432 1431 1430
1431 1431 1430 1430 1430 1429 1428 1428 1427 1427 1427 1427 1427 1427 1427 1427 1427 1427 1427 1428 1428 1428 1429 1429 1429 1429 1430 1431 1431 1431 1431 1431 1432 1432 1432 1432 1432 1431 1431 1431 1430 1430 1429
1429 1429 1429 1429 1428 1428 1427 1427 1426 1426 1426 1425 1425 1426 1426 1426 1426 1426 1426 1427 1427 1427 1427 1428 1428 1428 1429 1429 1429 1429 1429 1430 1430 1430 1430 1430 1430 1430 1429 1429 1429 1429 1428
1428 1428 1427 1427 1427 1426 1426 1425 1425 1425 1424 1424 1424 1424 1425 1425 1425 1425 1425 1426 1426 1426 1426 1426 1427 1427 1427 1427 1427 1427 1428 1428 1428 1428 1428 1428 1428 1428 1428 1428 1427 1427 1427
1426 1426 1426 1425 1425 1425 1424 1424 1423 1423 1423 1423 1423 1423 1424 1424 1424 1424 1424 1424 1424 1425 1425 1425 1425 1425 1426 1426 1426 1426 1426 1426 1426 1426 1426 1427 1427 1426 1426 1426 1426 1426 1426